Preview of NWS' New Version of Forecast
This preview is not operational and should not be used for support decisions.

Regional Weather Roundup (RWR)

Issued by National Weather Service (NWS)

                            
000
ASUS46 KSEW 160410
RWRWA 

WASHINGTON REGIONAL WEATHER ROUNDUP
NATIONAL WEATHER SERVICE SEATTLE WA
900 PM PDT MON JUL 15 2019

NOTE:"FAIR" INDICATES FEW OR NO CLOUDS BELOW 12,000 FEET WITH NO 
SIGNIFICANT WEATHER AND/OR OBSTRUCTIONS TO VISIBILITY.

WAZ507-509-555>559-160500-
SEATTLE, TACOMA, EVERETT, AND VICINITY
  
CITY           SKY/WX    TMP DP  RH WIND       PRES   REMARKS
EVERETT        CLOUDY    65  56  72 N5        30.06F                  
BOEING FIELD   MOCLDY    69  56  62 SW5       30.04S                  
RENTON         CLOUDY    70  58  65 SW3       30.04S                  
SEATAC AIRPORT MOCLDY    68  57  68 SW6       30.05S                  
JBLM-MCCHORD   CLOUDY    67  66  99 S5        30.05F                  
PUYALLUP       CLOUDY    64  64 100 CALM      30.06S                  
BREMERTON      CLEAR     64  59  83 CALM      30.05S                  
JBLM-FT LEWIS  NOT AVBL                                               
TACOMA NARROWS CLEAR     64  58  80 S3        30.05S                  
$$
 
WAZ001-503-506-510-514-515-160500-
NORTH INTERIOR
  
CITY           SKY/WX    TMP DP  RH WIND       PRES   REMARKS
BELLINGHAM     CLEAR     67  55  65 S7        30.03S                  
FRIDAY HARBOR  CLOUDY    57  53  86 SW5       30.04S                  
EASTSOUND      CLEAR     64  57  77 S10       30.01S                  
PORT ANGELES   CLOUDY    62  56  80 W8        30.06F                  
EDIZ HOOK      CLOUDY    61  55  81 W8        30.05S                  
PORT TOWNSEND  CLOUDY    64  57  77 CALM      30.04F                  
NAS WHIDBEY    MOCLDY    62  54  74 SW7       30.08F                  
ARLINGTON      CLOUDY    67  56  67 NW7       30.05S                  
BURLINGTON     MOCLDY    66  57  72 CALM      30.05S                  
$$
 
WAZ020-022-039-040-504-511-512-160500-
SOUTHWEST INTERIOR
  
CITY           SKY/WX    TMP DP  RH WIND       PRES   REMARKS
SHELTON        CLEAR     65  58  78 SW5       30.02S                  
OLYMPIA        CLOUDY    66  61  84 S6        30.05F                  
CHEHALIS       CLOUDY    64  64 100 CALM      30.06F                  
KELSO          CLOUDY    68  62  81 W6        30.05S                  
VANCOUVER      MOCLDY    72  59  63 NW5       30.02F                  
SCAPPOOSE, OR  MOCLDY    69  61  75 NW3       30.02F                  
PORTLAND, OR   MOCLDY    74  59  59 W5        30.03S                  
$$
 
WAZ021-516-517-160500-
WASHINGTON COAST
  
CITY           SKY/WX    TMP DP  RH WIND       PRES   REMARKS
FORKS          CLOUDY    62  57  83 NW5       30.06S                  
HOQUIAM        CLOUDY    65  60  84 W6        30.06S                  
ASTORIA, OR    CLOUDY   N/A N/A N/A SW9       30.05S                  
$$
 
WAZ019-023-024-040-567>569-160500-
CASCADE MOUNTAINS AND COLUMBIA GORGE
  
CITY           SKY/WX    TMP DP  RH WIND       PRES   REMARKS
STAMPEDE PASS  LGT RAIN  53  51  93 VRB5      30.11F VSB 1/4          
TROUTDALE, OR  MOCLDY    73  60  63 NW3       30.02S                  
HOOD RIVER, OR CLEAR     70  55  60 NW8       30.02S                  
THE DALLES, OR CLEAR     72  54  53 W13       29.99R                  
$$

WAZ026-027-041>044-520-521-160500-
EAST SLOPES
  
CITY           SKY/WX    TMP DP  RH WIND       PRES   REMARKS
OMAK           CLOUDY    73  46  38 NW5       29.94R                  
WENATCHEE      MOCLDY    71  50  47 W12       29.94F                  
ELLENSBURG     PTCLDY    65  51  60 NW18      30.00S                  
YAKIMA         CLOUDY    73  52  47 NW12      29.98S                  
SUNNYSIDE ARPT MOCLDY    72  57  58 W3        29.95S                  
YAKIMA TC      MOCLDY    70  52  52 NW6       29.98R                  
$$

WAZ028-034-035-160500-
COLUMBIA BASIN
  
CITY           SKY/WX    TMP DP  RH WIND       PRES   REMARKS
EPHRATA        PTCLDY    71  50  47 SE8       29.93F                  
MOSES LAKE     PTCLDY    73  54  51 SE8       29.94F                  
PASCO          CLEAR     80  52  37 S7        29.92F                  
RICHLAND ARPT  CLEAR     76  55  48 S3        29.92S                  
HERMISTON, OR  PTCLDY    75  51  43 SW12      29.94S                  
$$

WAZ036>038-160500-
NORTHEAST WASHINGTON
  
CITY           SKY/WX    TMP DP  RH WIND       PRES   REMARKS
SPOKANE GEIGER MOCLDY    68  45  43 W5        30.01S                  
SPOKANE FELTS  CLOUDY    66  52  60 CALM      30.00S                  
FAIRCHILD AFB  MOCLDY    65  46  49 SW3       30.01S                  
COEURDALENE,ID MOCLDY    62  56  80 N3        30.02F                  
DEER PARK      MOCLDY    63  54  72 NE5       30.01S                  
$$

WAZ029>033-160500-
SOUTHEAST WASHINGTON
  
CITY           SKY/WX    TMP DP  RH WIND       PRES   REMARKS
PULLMAN        PTCLDY    64  55  72 CALM      30.04S                  
LEWISTON, ID   MOCLDY    67  55  65 S5        29.99S                  
WALLA WALLA    CLEAR     73  52  47 SE7       29.97F                  
PENDLETON, OR  CLEAR     68  48  48 W9        29.98S                  
$$